map of BKI home
Great Circle Mapper logo
BKI - Airport
Location
City:  Kota-Kinabalu, Sabah, Borneo, Malaysia
Name:Kota-Kinabalu International Airport
ICAO / IATA:WBKK / BKI

Details
Type:Airport (Aerodrome, Airfield)
Use:Public/Civil, International (customs port of entry)
Latitude:556'14"N (5.937208)
Longitude:11603'04"E (116.051181)
Datum:WGS 1984
Elevation:10 ft (3 m)
Variation:0.21W (WMM2015 magnetic declination)
-0.08 annual change
Runways:1
Longest:9800 × 150 ft (2987 × 45.5 m), paved

Time
Time Zone:UTC+8
Local Time:

Weather
METAR:WBKK 050130Z 19012KT 4000 RA FEW008 SCT030 OVC250 24/24 Q1010 NOSIG
TAF:WBKK 042300Z 0500/0524 25010KT 9999 FEW014 SCT140 BKN270
TEMPO 0500/0504 5000 RA FEW012 FEW016CB SCT030 PROB30
TEMPO 0508/0512 5000 TSRA FEW013 FEW016CB SCT035

Related Locations
Nearby:
Farthest:SDKH: 12384 mi / 19930 km
Canutama [Aeropuerto Canutama], AM, BR

Find:

   beyond  
but within

Other Information
Maps:
NOTAMs:
Links:
Sources:

  
flag of Malaysia   

Sectional Chart

Flight Planning
at skyvector.com

Satellite Image

Google Maps Satellite view

 

Copyright © 2004-2015 Karl L. Swartz. All rights reserved.
The Great Circle Mapper name and logo are trademarks of the Great Circle Mapper.
All other trademarks mentioned herein belong to their respective owners.
Please see credits for attibutions and further copyright information.

  Follow gcmap on Facebook Follow gcmap on Twitter Follow gcmap on Google+

hCard Microformat

Geo Microformat